Regional Weather Roundup
Issued by NWS

Home | Current Version | Previous Version | Graphics & Text | Print | Product List | Glossary On
Versions: 1 2 3 4 5 6 7 8 9 10 11 12 13 14 15 16 17 18 19 20 21 22 23 24 25 26 27 28 29 30 31 32 33 34 35 36 37 38 39 40 41 42 43 44 45 46 47 48 49 50
000
ASUS43 KOAX 191410
RWRNE

WEATHER ROUNDUP FOR NEBRASKA
NATIONAL WEATHER SERVICE OMAHA NE
800 AM CST SUN NOV 19 2017

NOTES: SATELLITE DATA IS BEING USED TO AUGMENT CLOUD COVER ABOVE
       12000 FEET.
       "FAIR" INDICATES FEW OR NO CLOUDS BELOW 12,000 FEET WITH NO
       SIGNIFICANT WEATHER AND/OR OBSTRUCTIONS TO VISIBILITY.


NEZ001>004-019>022-054>056-191500-
NEBRASKA PANHANDLE

CITY           SKY/WX    TMP DP  RH WIND       PRES   REMARKS
SCOTTSBLUFF    CLOUDY    18  12  77 NE6       30.10F WCI  10
ALLIANCE       CLOUDY    15  12  88 W6        30.07F WCI   6
CHADRON        CLEAR     21  16  81 CALM      30.06S
GORDON         FAIR      24  18  79 W7        30.04F WCI  16
KIMBALL        CLOUDY    24  17  72 W10       30.11F WCI  14
SIDNEY         CLOUDY    20  14  77 W9        30.12F WCI   9
$$

NEZ057>060-069>072-079>082-191500-
SOUTHWEST NEBRASKA

CITY           SKY/WX    TMP DP  RH WIND       PRES   REMARKS
NORTH PLATTE   CLOUDY    18  14  84 W5        30.15F WCI  11
IMPERIAL       CLOUDY    25  17  72 W8        30.16F WCI  16
LEXINGTON      CLOUDY    22  19  86 W6        30.17S WCI  15
MCCOOK         CLOUDY    23  20  88 W10       30.19F WCI  12
OGALLALA       CLOUDY    18  15  88 W6        30.14F WCI  10
$$

NEZ005>010-023>029-035>040-094-191500-
NORTH CENTRAL NEBRASKA

CITY           SKY/WX    TMP DP  RH WIND       PRES   REMARKS
VALENTINE      CLEAR     24  18  77 W10       30.07S WCI  14
AINSWORTH      CLEAR     26  22  82 SW8       30.07S WCI  18
BROKEN BOW     CLEAR     30  19  63 W9        30.12S WCI  22
O`NEILL        CLEAR     24  21  90 SW5       30.10S WCI  18
ORD            CLOUDY    18  16  92 SW3       30.13F
THEDFORD       CLEAR     27  20  77 CALM      30.10S
$$

NEZ041-046>049-061>064-073>077-083>087-191500-
SOUTH CENTRAL NEBRASKA

CITY           SKY/WX    TMP DP  RH WIND       PRES   REMARKS
GRAND ISLAND   CLEAR     28  22  78 SW7       30.17S WCI  21
AURORA         CLOUDY    25  20  83 SW5       30.17S WCI  19
HASTINGS       CLEAR     25  19  78 SW3       30.17F
HEBRON         CLOUDY    24  21  87 CALM      30.22S
HOLDREGE       CLEAR     27  22  79 W10       30.17F WCI  17
KEARNEY        CLEAR     28  21  75 SW10      30.17S WCI  19
YORK           PTCLDY    23  23 100 CALM      30.18F
$$

NEZ011>018-030>034-042>045-191500-
NORTHEAST NEBRASKA

CITY           SKY/WX    TMP DP  RH WIND       PRES   REMARKS
NORFOLK        CLEAR     20  18  92 S3        30.13F
ALBION         CLOUDY    22  19  89 CALM      30.15S
BLAIR          CLEAR     25  22  88 S6        30.18S WCI  18
COLUMBUS       CLEAR     21  20  96 CALM      30.19R
FREMONT        CLEAR     24  21  88 CALM      30.19S
TEKAMAH        CLEAR     20  16  84 S5        30.19S WCI  13
WAYNE          CLEAR     21  19  91 SW6       30.13F WCI  13
$$

NEZ050>053-065>068-078-088>093-191500-
SOUTHEAST NEBRASKA

CITY           SKY/WX    TMP DP  RH WIND       PRES   REMARKS
LINCOLN        PTCLDY    23  20  88 S6        30.21F WCI  16
OMAHA EPPLEY   PTCLDY    25  19  78 SE9       30.21S WCI  15
BEATRICE       CLEAR     25  22  89 S3        30.22S
FALLS CITY     CLEAR     25  22  88 CALM      30.24R
NEBRASKA CITY  CLEAR     28  26  93 SW6       30.22R WCI  21
PLATTSMOUTH    CLEAR     28  23  81 SW9       30.21S WCI  19
$$

NEZ044-045-051>053-067-191500-
OMAHA AREA

CITY           SKY/WX    TMP DP  RH WIND       PRES   REMARKS
OMAHA EPPLEY   PTCLDY    25  19  78 SE9       30.21S WCI  15
BLAIR          CLEAR     25  22  88 S6        30.18S WCI  18
FREMONT        CLEAR     24  21  88 CALM      30.19S
MILLARD        CLEAR     26  23  89 CALM      30.21S
OFFUTT AFB     CLEAR     23  20  88 S3        30.21S
PLATTSMOUTH    CLEAR     28  23  81 SW9       30.21S WCI  19
WAHOO          FAIR      22  20  91 S5        30.19F WCI  16
$$




USA.gov is the U.S. government's official web portal to all federal, state and local government web resources and services.